TimeEDT,TemperatureF,Dew PointF,Humidity,Sea Level PressureIn,VisibilityMPH,Wind Direction,Wind SpeedMPH,Gust SpeedMPH,PrecipitationIn,Events,Conditions,WindDirDegrees,DateUTC
12:51 AM,57.0,53.1,87,30.07,10.0,West,4.6,-,N/A,,Clear,270,2013-09-20 04:51:00
1:51 AM,54.0,51.1,90,30.07,10.0,Calm,Calm,-,N/A,,Clear,0,2013-09-20 05:51:00
2:51 AM,55.0,53.1,93,30.07,10.0,Calm,Calm,-,N/A,,Clear,0,2013-09-20 06:51:00
3:51 AM,53.1,51.1,93,30.08,7.0,Calm,Calm,-,N/A,,Clear,0,2013-09-20 07:51:00
4:51 AM,54.0,52.0,93,30.08,7.0,Calm,Calm,-,N/A,,Clear,0,2013-09-20 08:51:00
5:51 AM,50.0,48.9,96,30.07,9.0,Calm,Calm,-,N/A,Fog,Patches of Fog,0,2013-09-20 09:51:00
6:51 AM,53.1,52.0,96,30.08,10.0,SW,4.6,-,N/A,Fog,Patches of Fog,220,2013-09-20 10:51:00
7:51 AM,57.9,53.1,84,30.10,10.0,North,4.6,-,N/A,,Partly Cloudy,350,2013-09-20 11:51:00
8:51 AM,61.0,55.0,81,30.09,10.0,Calm,Calm,-,N/A,,Partly Cloudy,0,2013-09-20 12:51:00
9:51 AM,68.0,55.0,63,30.09,10.0,SW,3.5,-,N/A,,Partly Cloudy,230,2013-09-20 13:51:00
10:51 AM,73.0,53.1,49,30.09,10.0,West,5.8,-,N/A,,Partly Cloudy,270,2013-09-20 14:51:00
11:51 AM,75.0,50.0,41,30.09,10.0,SSW,9.2,-,N/A,,Partly Cloudy,210,2013-09-20 15:51:00
12:51 PM,77.0,48.9,37,30.07,10.0,WSW,6.9,-,N/A,,Partly Cloudy,240,2013-09-20 16:51:00
1:51 PM,75.9,55.0,48,30.06,10.0,SSE,10.4,-,N/A,,Partly Cloudy,160,2013-09-20 17:51:00
2:51 PM,75.0,59.0,57,30.04,10.0,SSE,12.7,-,N/A,,Scattered Clouds,150,2013-09-20 18:51:00
3:51 PM,73.9,57.0,55,30.03,10.0,SSE,12.7,-,N/A,,Scattered Clouds,160,2013-09-20 19:51:00
4:51 PM,73.9,59.0,59,30.02,10.0,SSE,9.2,-,N/A,,Scattered Clouds,150,2013-09-20 20:51:00
5:51 PM,72.0,55.9,57,30.04,10.0,South,10.4,-,N/A,,Scattered Clouds,190,2013-09-20 21:51:00
6:51 PM,64.9,57.0,75,30.04,10.0,SSW,5.8,-,N/A,,Scattered Clouds,210,2013-09-20 22:51:00
7:51 PM,62.1,55.9,80,30.05,10.0,South,5.8,-,N/A,,Partly Cloudy,190,2013-09-20 23:51:00
8:51 PM,59.0,55.9,90,30.06,10.0,SSE,3.5,-,N/A,,Clear,160,2013-09-21 00:51:00
9:51 PM,59.0,57.0,93,30.06,7.0,Calm,Calm,-,N/A,,Partly Cloudy,0,2013-09-21 01:51:00
9:59 PM,59.0,55.4,88,30.05,7.0,Calm,Calm,-,N/A,,Partly Cloudy,0,2013-09-21 01:59:00
10:51 PM,57.0,55.0,93,30.05,7.0,Calm,Calm,-,N/A,Fog,Patches of Fog,0,2013-09-21 02:51:00
11:14 PM,57.2,57.2,100,30.05,1.5,South,4.6,-,N/A,,Mostly Cloudy,190,2013-09-21 03:14:00
11:23 PM,59.0,57.2,94,30.05,0.5,SSW,3.5,-,N/A,Fog,Fog,210,2013-09-21 03:23:00
11:51 PM,60.1,59.0,96,30.05,1.0,SSW,3.5,-,N/A,,Overcast,210,2013-09-21 03:51:00